Tracking 19575 objects as of 18-Feb-2019
HD Live streaming from Space Station
objects crossing your sky now

NATO 3A

Track NATO 3A now!
NATO 3A is classified as:


NORAD ID: 8808
Int'l Code: 1976-035A
Perigee: 35,819.2 km
Apogee: 36,013.2 km
Inclination: 10.8 °
Period: 1,442.4 minutes
Semi major axis: 42287 km
RCS: 7.2313 m2 (large)
Launch date: April 22, 1976
Source: North Atlantic Treaty Organization (NATO)
Launch site: AIR FORCE EASTERN TEST RANGE (AFETR)
aabbcc
Your satellite tracking list
Your tracking list is empty




NASA's NSSDC Master Catalog

Two Line Element Set (TLE):
1  8808U 76035A   19048.36908181  .00000001  00000-0  00000+0 0  9993
2  8808  10.7600 320.1900 0022939 268.0187 300.5479  0.99836403720528
Source of the keplerian elements: AFSPC